Location: Crescent
(42.8242°N, 73.7329°W)
Time: 05:19:13
(UTC+00:00)

Vanguard 2 Rocket - Pass Details

Date: 22 February 2026
Orbit: 553 x 3286 km, 32.9° (Epoch: 13 March)

Event Time Altitude Azimuth Distance (km) Brightness Sun altitude
Rises 22:17:23 0° 277° (W) 6,436 12.7 2.4°
Reaches altitude 10° 22:23:30 10° 265° (W) 4,919 12.7 1.3°
Maximum altitude 22:32:08 21° 224° (SW) 3,255 10.7 -0.2°
Drops below altitude 10° 22:38:17 10° 179° (S) 3,350 10.0 -1.3°
Sets 22:41:28 0° 163° (SSE) 3,942 10.1 -1.9°
